Location: Obersdorf
(47.4079°N, 10.2781°E)
Time: 03:23:46
(UTC+01:00)

BUGSAT 1 - Visible Passes

Search period start: 06 December 2021 00:00
Search period end: 16 December 2021 00:00
Orbit: 558 x 600 km, 98.1° (Epoch: 05 December)

Date Brightness Start Highest point End Pass type
(mag) Time Alt. Az. Time Alt. Az. Time Alt. Az.
06 Dec ? 04:49:26 10° NNE 04:53:15 31° E 04:57:01 10° SSE visible
06 Dec ? 06:24:48 10° N 06:28:26 28° WNW 06:32:03 10° SW visible
06 Dec ? 17:17:03 10° SSW 17:20:26 25° W 17:23:52 10° NW visible
07 Dec ? 04:54:05 10° NNE 04:57:59 35° E 05:01:51 10° SSE visible
07 Dec ? 06:29:35 10° N 06:33:07 26° WNW 06:36:36 10° WSW visible
07 Dec ? 17:21:57 10° SW 17:25:11 22° W 17:28:28 10° NW visible
08 Dec ? 04:58:44 10° NNE 05:02:43 38° E 05:06:40 10° SSE visible
08 Dec ? 06:34:24 10° NNW 06:37:47 24° WNW 06:41:09 10° WSW visible
08 Dec ? 17:26:51 10° SW 17:29:55 20° W 17:33:02 10° NW visible
09 Dec ? 05:03:23 10° NNE 05:07:27 43° E 05:11:28 10° S visible
09 Dec ? 06:39:12 10° NNW 06:42:26 22° WNW 06:45:40 10° WSW visible
09 Dec ? 17:31:47 10° SW 17:34:40 18° W 17:37:35 10° NW visible
10 Dec ? 05:08:03 10° NNE 05:12:10 48° E 05:16:15 10° S visible
10 Dec ? 06:44:02 10° NNW 06:47:06 20° WNW 06:50:10 10° WSW visible
10 Dec ? 17:36:44 10° SW 17:39:25 17° W 17:42:07 10° NW visible
11 Dec ? 05:12:42 10° NNE 05:16:53 53° E 05:21:00 10° S visible
11 Dec ? 06:48:52 10° NNW 06:51:45 18° WNW 06:54:39 10° WSW visible
11 Dec ? 17:41:45 10° SW 17:44:09 15° W 17:46:35 10° NW visible
12 Dec ? 05:17:23 10° NNE 05:21:35 60° E 05:25:45 10° S visible
12 Dec ? 06:53:43 10° NNW 06:56:24 17° WNW 06:59:05 10° W visible
12 Dec ? 17:46:48 10° WSW 17:48:54 14° W 17:51:00 10° WNW visible
13 Dec ? 05:22:03 10° NNE 05:26:18 67° ESE 05:30:28 10° S visible
13 Dec ? 06:58:36 10° NNW 07:01:03 15° WNW 07:03:29 10° W visible
13 Dec ? 17:51:56 10° WSW 17:53:38 12° W 17:55:21 10° WNW visible
14 Dec ? 05:26:44 10° NNE 05:31:00 74° ESE 05:35:11 10° S visible
14 Dec ? 07:03:30 10° NNW 07:05:41 14° WNW 07:07:52 10° W visible
14 Dec ? 17:57:16 10° WSW 17:58:23 11° W 17:59:31 10° WNW visible
15 Dec ? 05:31:25 10° NNE 05:35:41 83° ESE 05:39:53 10° SSW visible
15 Dec ? 07:08:27 10° NNW 07:10:19 13° WNW 07:12:10 10° W visible
